Rexburg, ID

3:41 AM MST on February 27, 2017 (GMT -0700)
Rexburg-Madison County

Weather History for KRXE - June, 2013

Change the Weather History Date:

Wednesday, June 19, 2013

  Actual Average Record
Temperature  
Mean Temperature 60 °F 60 °F  
Max Temperature 73 °F 75 °F 87 °F (2003)
Min Temperature 46 °F 46 °F 37 °F (2001)
Degree Days  
Heating Degree Days 5 5  
Month to date heating degree days 77 129  
Since 1 June heating degree days 77 129  
Since 1 July heating degree days 7761 8087  
Cooling Degree Days 0 1  
Month to date cooling degree days 20 7  
Year to date cooling degree days 22 11  
Since 1 June cooling degree days 20 7  
Growing Degree Days 10 (Base 50)    
Moisture  
Dew Point 36 °F    
Average Humidity 44    
Maximum Humidity 65    
Minimum Humidity 23    
Precipitation  
Precipitation 0.03 in 0.04 in 0.41 in (1979)
Month to date precipitation 0.22 1.07  
Year to date precipitation 4.47 6.94  
Sea Level Pressure  
Sea Level Pressure 29.70 in    
Wind  
Wind Speed 13 mph (SSW)    
Max Wind Speed 30 mph    
Max Gust Speed 40 mph    
Visibility 10 miles    
Events Rain    
T = Trace of Precipitation, MM = Missing Value Source: NWS Daily Summary

Daily Weather History Graph

Daily Weather History Graph

Search for Another Location

Airport or City:

Trip Planner

Search our weather history database for the weather conditions in past years. The results will help you decide how hot, cold, wet, or windy it might be!

Date:

Astronomy

Jun. 19, 2013 Rise Set
Actual Time 5:44 AM MDT 9:12 PM MDT
Civil Twilight 5:08 AM MDT 9:48 PM MDT
Nautical Twilight 4:21 AM MDT 10:36 PM MDT
Astronomical Twilight 3:20 AM MDT 11:36 PM MDT
Moon 5:04 PM MDT (6/19) 2:38 AM MDT (6/19)
Length of Visible Light 16h 40m
Length of Day
15h 27m
Waxing Gibbous, 81% of the Moon is Illuminated
Jun 19
Waxing Gibbous
Jun 23
Full
Jun 29
Last Quarter
Jul 8
New
Jul 15
First Quarter

Hourly Weather History & Observations

Time (MDT) Temp. Dew Point Humidity Pressure Visibility Wind Dir Wind Speed Gust Speed Precip Events Conditions
12:53 AM 59.0 °F 39.0 °F 48% 29.52 in 10.0 mi Calm Calm - N/A   Clear
1:53 AM 57.9 °F 39.0 °F 49% 29.49 in 10.0 mi Variable 4.6 mph - N/A   Clear
2:53 AM 62.1 °F 37.0 °F 39% 29.48 in 10.0 mi SW 9.2 mph 17.3 mph N/A   Clear
3:53 AM 57.9 °F 39.9 °F 51% 29.52 in 10.0 mi South 15.0 mph 23.0 mph N/A   Clear
4:53 AM 59.0 °F 37.0 °F 44% 29.55 in 10.0 mi South 12.7 mph 19.6 mph N/A   Clear
5:53 AM 57.0 °F 37.0 °F 47% 29.58 in 10.0 mi South 6.9 mph - N/A   Clear
6:53 AM 57.9 °F 36.0 °F 44% 29.59 in 10.0 mi South 10.4 mph - N/A   Clear
7:53 AM 59.0 °F 37.9 °F 46% 29.61 in 10.0 mi South 11.5 mph - N/A   Clear
8:53 AM 63.0 °F 36.0 °F 37% 29.61 in 10.0 mi SSW 11.5 mph 20.7 mph N/A   Clear
9:53 AM 66.0 °F 37.0 °F 34% 29.61 in 10.0 mi South 12.7 mph - N/A   Clear
10:53 AM 70.0 °F 37.0 °F 30% 29.61 in 10.0 mi South 13.8 mph 19.6 mph N/A   Clear
11:53 AM 71.1 °F 32.0 °F 24% 29.61 in 10.0 mi SW 15.0 mph 26.5 mph N/A   Clear
12:53 PM 73.0 °F 34.0 °F 24% 29.61 in 10.0 mi SW 16.1 mph 27.6 mph N/A   Clear
1:53 PM 72.0 °F 35.1 °F 26% 29.62 in 10.0 mi SSW 19.6 mph 32.2 mph N/A   Clear
2:53 PM 60.1 °F 34.0 °F 38% 29.72 in 10.0 mi WSW 25.3 mph 38.0 mph N/A   Mostly Cloudy
3:53 PM 53.1 °F 37.9 °F 57% 29.81 in 10.0 mi WSW 16.1 mph 33.4 mph 0.03 in Rain Light Rain
4:53 PM 60.1 °F 37.0 °F 42% 29.80 in 10.0 mi SSW 12.7 mph 21.9 mph 0.00 in   Scattered Clouds
5:16 PM 53.6 °F 37.4 °F 54% 29.94 in 10.0 mi WSW 20.7 mph 34.5 mph N/A   Scattered Clouds
5:53 PM 55.0 °F 37.9 °F 53% 29.88 in 10.0 mi WSW 18.4 mph 27.6 mph N/A   Scattered Clouds
6:53 PM 57.9 °F 35.1 °F 42% 29.87 in 10.0 mi South 9.2 mph - N/A   Partly Cloudy
7:53 PM 55.9 °F 33.1 °F 42% 29.89 in 10.0 mi SSW 17.3 mph 23.0 mph N/A   Clear
8:53 PM 53.1 °F 32.0 °F 45% 29.91 in 10.0 mi SSW 11.5 mph 19.6 mph N/A   Scattered Clouds
9:53 PM 50.0 °F 35.1 °F 57% 29.92 in 10.0 mi South 9.2 mph - N/A   Partly Cloudy
10:53 PM 48.0 °F 35.1 °F 61% 29.93 in 10.0 mi South 8.1 mph - N/A   Clear
11:53 PM 46.9 °F 35.1 °F 63% 29.93 in 10.0 mi South 12.7 mph - N/A   Clear